When you browse on this site, cookies collect data to enhance your experience and personalize the content and advertising you see.
Visit our Privacy Policy to learn more. By continuing to use the site, you agree to this use of cookies and data.
  • Em Portugal
  • Lista de países
  • Para 7 dias
  • Temperatura da água
  • Mapas de satélite
  • Mapa do tempo
  • Widgets de tempo
  • user-avatar
    Iniciar Sessão

    Previsão horária em Innsbruck

    Hoje, 22 Julho, Segunda-feira

    Tempo Temperatura Precipitação Vento Pressão Humidade
    00:00 +8°C° 0 mm 1 m/s 602 mmHg 91%
    01:00 +8°C° 0 mm 1 m/s 602 mmHg 90%
    02:00 +8°C° 0 mm 1 m/s 602 mmHg 90%
    03:00 +8°C° 0 mm 1 m/s 602 mmHg 89%
    04:00 +7°C° 0 mm 1 m/s 602 mmHg 89%
    05:00 +9°C° 0 mm 1 m/s 603 mmHg 86%
    06:00 +11°C° 0 mm 1 m/s 604 mmHg 83%
    07:00 +13°C° 0 mm 1 m/s 605 mmHg 78%
    08:00 +15°C° 0 mm 1 m/s 606 mmHg 69%
    09:00 +18°C° 0 mm 1 m/s 606 mmHg 60%
    10:00 +20°C° 0 mm 1 m/s 607 mmHg 52%
    11:00 +21°C° 0 mm 1 m/s 607 mmHg 47%
    12:00 +21°C° 0 mm 2 m/s 608 mmHg 43%
    13:00 +23°C° 0 mm 2 m/s 608 mmHg 39%
    14:00 +21°C° 0 mm 2 m/s 608 mmHg 40%
    15:00 +21°C° 0 mm 2 m/s 607 mmHg 41%
    16:00 +21°C° 0 mm 3 m/s 607 mmHg 43%
    17:00 +19°C° 0 mm 2 m/s 606 mmHg 54%
    18:00 +17°C° 0 mm 2 m/s 606 mmHg 65%
    19:00 +16°C° 0 mm 1 m/s 605 mmHg 77%
    20:00 +14°C° 0 mm 1 m/s 604 mmHg 82%
    21:00 +12°C° 0 mm 1 m/s 604 mmHg 88%
    22:00 +10°C° 0 mm 0 m/s 603 mmHg 93%
    23:00 +9°C° 0 mm 0 m/s 603 mmHg 93%

    Amanhã, 23 Julho, Terça-feira

    Tempo Temperatura Precipitação Vento Pressão Humidade
    00:00 +9°C° 0 mm 0 m/s 603 mmHg 92%
    01:00 +9°C° 0 mm 0 m/s 603 mmHg 92%
    02:00 +8°C° 0 mm 0 m/s 602 mmHg 91%
    03:00 +8°C° 0 mm 0 m/s 602 mmHg 90%
    04:00 +9°C° 0 mm 1 m/s 602 mmHg 90%
    05:00 +10°C° 0 mm 0 m/s 603 mmHg 82%
    06:00 +12°C° 0 mm 0 m/s 603 mmHg 75%
    07:00 +14°C° 0 mm 0 m/s 604 mmHg 67%
    08:00 +16°C° 0 mm 0 m/s 605 mmHg 59%
    09:00 +20°C° 0 mm 1 m/s 606 mmHg 50%
    10:00 +22°C° 0 mm 1 m/s 607 mmHg 42%
    11:00 +23°C° 0 mm 1 m/s 607 mmHg 39%
    12:00 +24°C° 0 mm 1 m/s 607 mmHg 37%
    13:00 +25°C° 0 mm 2 m/s 607 mmHg 34%
    14:00 +24°C° 0 mm 2 m/s 607 mmHg 35%
    15:00 +24°C° 0 mm 2 m/s 606 mmHg 37%
    16:00 +24°C° 0 mm 2 m/s 606 mmHg 38%
    17:00 +21°C° 0 mm 2 m/s 605 mmHg 49%
    18:00 +20°C° 0 mm 2 m/s 605 mmHg 60%
    19:00 +19°C° 0 mm 1 m/s 604 mmHg 70%
    20:00 +16°C° 0 mm 1 m/s 603 mmHg 76%
    21:00 +14°C° 0 mm 1 m/s 602 mmHg 81%
    22:00 +11°C° 0 mm 0 m/s 602 mmHg 87%
    23:00 +12°C° 0 mm 1 m/s 601 mmHg 86%

    Depois de amanhã, 24 Julho, Quarta-feira

    Tempo Temperatura Precipitação Vento Pressão Humidade
    00:00 +11°C° 0 mm 1 m/s 601 mmHg 85%
    01:00 +11°C° 0 mm 1 m/s 601 mmHg 84%
    02:00 +11°C° 0 mm 1 m/s 601 mmHg 84%
    03:00 +11°C° 0 mm 1 m/s 600 mmHg 83%
    04:00 +11°C° 0 mm 1 m/s 600 mmHg 82%
    05:00 +13°C° 0 mm 1 m/s 601 mmHg 77%
    06:00 +14°C° 0 mm 0 m/s 602 mmHg 71%
    07:00 +16°C° 0 mm 0 m/s 603 mmHg 66%
    08:00 +20°C° 0 mm 1 m/s 604 mmHg 59%
    09:00 +22°C° 0 mm 1 m/s 605 mmHg 53%
    10:00 +24°C° 0 mm 1 m/s 605 mmHg 46%
    11:00 +25°C° 0 mm 1 m/s 605 mmHg 43%
    12:00 +25°C° 0 mm 2 m/s 606 mmHg 39%
    13:00 +26°C° 0 mm 2 m/s 606 mmHg 36%
    14:00 +26°C° 0.1 mm 2 m/s 605 mmHg 38%
    15:00 +25°C° 0.1 mm 2 m/s 605 mmHg 41%
    16:00 +25°C° 0.1 mm 2 m/s 605 mmHg 43%
    17:00 +23°C° 0.3 mm 2 m/s 604 mmHg 54%
    18:00 +21°C° 0.3 mm 1 m/s 603 mmHg 65%
    19:00 +19°C° 0.3 mm 1 m/s 603 mmHg 77%
    20:00 +18°C° 0.6 mm 1 m/s 602 mmHg 81%
    21:00 +15°C° 0.6 mm 1 m/s 602 mmHg 85%
    22:00 +13°C° 0.6 mm 0 m/s 602 mmHg 89%
    23:00 +13°C° 0.2 mm 0 m/s 601 mmHg 89%

    25 Julho, Quinta-feira

    Tempo Temperatura Precipitação Vento Pressão Humidade
    00:00 +12°C° 0.2 mm 0 m/s 601 mmHg 90%
    01:00 +12°C° 0.2 mm 0 m/s 601 mmHg 90%
    02:00 +12°C° 0.1 mm 1 m/s 601 mmHg 90%
    03:00 +12°C° 0.1 mm 1 m/s 601 mmHg 89%
    04:00 +12°C° 0.1 mm 1 m/s 600 mmHg 89%
    05:00 +14°C° 0 mm 1 m/s 601 mmHg 84%
    06:00 +14°C° 0 mm 0 m/s 602 mmHg 80%
    07:00 +16°C° 0 mm 0 m/s 603 mmHg 75%
    08:00 +18°C° 0 mm 0 m/s 604 mmHg 68%
    09:00 +22°C° 0 mm 1 m/s 604 mmHg 60%
    10:00 +24°C° 0 mm 1 m/s 605 mmHg 52%
    11:00 +25°C° 0.3 mm 1 m/s 605 mmHg 50%
    12:00 +25°C° 0.3 mm 1 m/s 605 mmHg 47%
    13:00 +26°C° 0.3 mm 1 m/s 605 mmHg 45%
    14:00 +25°C° 1 mm 1 m/s 605 mmHg 47%
    15:00 +25°C° 1 mm 1 m/s 605 mmHg 49%
    16:00 +24°C° 1 mm 1 m/s 604 mmHg 51%
    17:00 +23°C° 1 mm 1 m/s 603 mmHg 61%
    18:00 +21°C° 1 mm 1 m/s 603 mmHg 71%
    19:00 +17°C° 1 mm 0 m/s 602 mmHg 81%
    20:00 +18°C° 0.6 mm 1 m/s 602 mmHg 83%
    21:00 +15°C° 0.6 mm 1 m/s 601 mmHg 85%
    22:00 +14°C° 0.6 mm 1 m/s 601 mmHg 87%
    23:00 +14°C° 0.1 mm 1 m/s 601 mmHg 86%

    26 Julho, Sexta-feira

    Tempo Temperatura Precipitação Vento Pressão Humidade
    00:00 +13°C° 0.1 mm 1 m/s 600 mmHg 86%
    01:00 +13°C° 0.1 mm 1 m/s 600 mmHg 86%
    02:00 +13°C° 0 mm 1 m/s 600 mmHg 85%
    03:00 +12°C° 0 mm 1 m/s 599 mmHg 85%
    04:00 +12°C° 0 mm 1 m/s 599 mmHg 84%
    05:00 +14°C° 0 mm 1 m/s 600 mmHg 80%
    06:00 +15°C° 0 mm 1 m/s 600 mmHg 77%
    07:00 +18°C° 0 mm 1 m/s 601 mmHg 73%
    08:00 +20°C° 0.1 mm 1 m/s 602 mmHg 65%
    09:00 +22°C° 0.1 mm 1 m/s 602 mmHg 58%
    10:00 +24°C° 0.1 mm 1 m/s 603 mmHg 50%
    11:00 +24°C° 0.4 mm 1 m/s 603 mmHg 47%
    12:00 +25°C° 0.4 mm 1 m/s 603 mmHg 43%
    13:00 +26°C° 0.4 mm 1 m/s 603 mmHg 39%
    14:00 +25°C° 0.2 mm 1 m/s 603 mmHg 44%
    15:00 +23°C° 0.2 mm 2 m/s 602 mmHg 50%
    16:00 +21°C° 0.2 mm 2 m/s 601 mmHg 55%
    17:00 +19°C° 2.6 mm 2 m/s 601 mmHg 67%
    18:00 +17°C° 2.6 mm 2 m/s 600 mmHg 78%
    19:00 +14°C° 2.6 mm 3 m/s 599 mmHg 89%
    20:00 +14°C° 1.9 mm 2 m/s 599 mmHg 91%
    21:00 +13°C° 1.9 mm 1 m/s 598 mmHg 93%
    22:00 +12°C° 1.9 mm 1 m/s 598 mmHg 95%
    23:00 +11°C° 0 mm 1 m/s 598 mmHg 93%

    27 Julho, Sábado

    Tempo Temperatura Precipitação Vento Pressão Humidade
    00:00 +11°C° 0 mm 1 m/s 597 mmHg 92%
    01:00 +11°C° 0 mm 1 m/s 597 mmHg 90%
    02:00 +10°C° 0 mm 1 m/s 597 mmHg 90%
    03:00 +10°C° 0 mm 1 m/s 596 mmHg 90%
    04:00 +9°C° 0 mm 0 m/s 596 mmHg 89%
    05:00 +11°C° 0 mm 0 m/s 597 mmHg 86%
    06:00 +13°C° 0 mm 1 m/s 598 mmHg 82%
    07:00 +15°C° 0 mm 1 m/s 598 mmHg 79%
    08:00 +16°C° 0.1 mm 1 m/s 599 mmHg 70%
    09:00 +19°C° 0.1 mm 1 m/s 600 mmHg 61%
    10:00 +21°C° 0.1 mm 1 m/s 601 mmHg 53%
    11:00 +22°C° 0.2 mm 1 m/s 601 mmHg 49%
    12:00 +21°C° 0.2 mm 2 m/s 601 mmHg 46%
    13:00 +23°C° 0.2 mm 2 m/s 601 mmHg 43%
    14:00 +21°C° 0.2 mm 2 m/s 601 mmHg 46%
    15:00 +21°C° 0.2 mm 2 m/s 601 mmHg 50%
    16:00 +20°C° 0.2 mm 2 m/s 600 mmHg 53%
    17:00 +19°C° 0.9 mm 2 m/s 600 mmHg 64%
    18:00 +18°C° 0.9 mm 1 m/s 599 mmHg 75%
    19:00 +16°C° 0.9 mm 1 m/s 599 mmHg 85%
    20:00 +14°C° 0.1 mm 1 m/s 598 mmHg 86%
    21:00 +12°C° 0.1 mm 1 m/s 598 mmHg 88%
    22:00 +11°C° 0.1 mm 1 m/s 597 mmHg 89%
    23:00 +11°C° 0 mm 1 m/s 597 mmHg 88%
    Mostrar mais